Home   Weather   Cherkasy   Past weeks

Flag for Ukraine Past Weather in Cherkasy, Ukraine — Yesterday and Last 2 Weeks

Now
37 °F

Low clouds.


Feels Like: 29 °F
Forecast: 38 / 41 °F
Wind: 13 mph from West

Location: Boryspil

Current Time: Dec 9, 2016 at 12:25:41 am

Latest Report: Dec 9, 2016 at 12:00 am


Visibility: N/A

Pressure: 29.77 "Hg

Humidity: 100%

Dew Point: 37 °F

Location of CherkasyLocation

Past Weather in Cherkasy — Graph

°F

Cherkasy Temperature Yesterday

Maximum temperature yesterday: 37 °F (at 7:00 pm)
Minimum temperature yesterday: 12 °F (at 12:00 am)
Average temperature yesterday: 26 °F

High & Low Weather Summary for the Past Weeks

 TemperatureHumidityPressure
High45 °F (Nov 27, 11:30 am)100% (Nov 24, 3:30 am)30.60 "Hg (Nov 24, 3:30 am)
Low3 °F (Dec 7, 8:00 am)63% (Dec 7, 12:30 pm)29.39 "Hg (Dec 2, 11:30 am)
Average27 °F90%29.99 "Hg
* Reported Nov 23 11:00 pm — Dec 8 11:00 pm, Cherkasy, Weather by CustomWeather, © 2016

Note: Actual official high and low records may vary slightly from our data, if they occured in-between our weather recording intervals... More about our weather records

Advertising

Cherkasy Weather History for the Previous 24 Hours

Scroll right to see more
 ConditionsComfort  
Time TempWeatherWind HumidityBarometerVisibility
11:00 pm
Thu, Dec 8
37 °FLow clouds.13 mph100%29.77 "HgN/A
10:30 pm37 °FLow clouds.15 mph100%29.74 "HgN/A
10:00 pm37 °FMostly cloudy.15 mph100%29.77 "HgN/A
9:30 pm37 °FLow clouds.13 mph100%29.77 "HgN/A
9:00 pm36 °FDrizzle. Low clouds.13 mph100%29.77 "Hg3 mi
8:30 pm37 °FDrizzle. Low clouds.10 mph93%29.77 "Hg5 mi
8:00 pm37 °FLow clouds.13 mph93%29.77 "HgN/A
7:30 pm37 °FMostly cloudy.13 mph93%29.80 "HgN/A
7:00 pm37 °FLow clouds.13 mph93%29.80 "HgN/A
6:30 pm36 °FLow clouds.13 mph100%29.80 "HgN/A
6:00 pm36 °FLow clouds.13 mph100%29.83 "HgN/A
5:30 pm36 °FLight rain. Mostly cloudy.13 mph93%29.83 "Hg4 mi
5:00 pm34 °FLight rain. Fog.13 mph100%29.86 "Hg3 mi
4:30 pm34 °FLight rain. Fog.13 mph100%29.86 "Hg2 mi
4:00 pm34 °FLight rain. Fog.15 mph100%29.89 "Hg2 mi
3:30 pm34 °FFog.15 mph100%29.89 "Hg3 mi
3:00 pm34 °FLight rain. Fog.15 mph100%29.92 "Hg2 mi
2:30 pm32 °FLight rain. Ice fog.15 mph100%29.92 "Hg1 mi
2:00 pm32 °FLight rain. Low clouds.15 mph100%29.92 "Hg2 mi
1:30 pm32 °FLight freezing rain. More clouds than sun.15 mph93%29.98 "Hg2 mi
1:00 pm30 °FLight freezing rain. More clouds than sun.15 mph100%29.98 "Hg2 mi
12:30 pm30 °FLight freezing rain. More clouds than sun.17 mph100%30.01 "Hg2 mi
12:00 pm30 °FLight freezing rain. Overcast.17 mph93%30.01 "Hg3 mi
11:30 am28 °FLight freezing rain. Overcast.17 mph93%30.04 "Hg3 mi
11:00 am28 °FLight freezing rain. Overcast.17 mph80%30.07 "Hg4 mi
10:30 am28 °FSunny.15 mph74%30.09 "Hg10 mi
10:01 am27 °FSunny.15 mph74%30.12 "Hg10 mi
9:30 am23 °FSunny.17 mph86%30.15 "Hg10 mi
9:00 am23 °FSunny.15 mph80%30.18 "Hg10 mi
8:30 am21 °FSunny.13 mph86%30.21 "Hg10 mi
8:00 am21 °FSunny.15 mph86%30.24 "Hg10 mi
7:30 am21 °FPassing clouds.10 mph86%30.27 "HgN/A
7:00 am18 °FClear.10 mph93%30.27 "Hg10 mi
6:30 am16 °FClear.8 mph93%30.30 "Hg10 mi
6:00 am16 °FClear.10 mph93%30.33 "Hg10 mi
5:30 am16 °FClear.10 mph93%30.36 "Hg10 mi
5:00 am16 °FClear.10 mph93%30.36 "Hg10 mi
4:30 am16 °FClear.8 mph93%30.39 "Hg10 mi
4:00 am16 °FPassing clouds.10 mph93%30.39 "HgN/A
3:30 am16 °FClear.10 mph86%30.42 "Hg10 mi
3:00 am14 °FClear.10 mph92%30.45 "Hg10 mi
2:30 am14 °FClear.8 mph85%30.45 "Hg10 mi
2:00 am12 °FClear.8 mph92%30.48 "Hg10 mi
1:30 am12 °FClear.8 mph92%30.48 "Hg10 mi
1:00 am12 °FClear.8 mph85%30.48 "Hg10 mi
12:30 am12 °FClear.6 mph85%30.51 "Hg10 mi
12:00 am12 °FClear.6 mph92%30.51 "Hg10 mi
Weather by CustomWeather, © 2016

See weather overviewHow to use our weather pages